Probability
0 0 0 0 0 0 0 0 0 0 0 0 0 3 3 0 0 3 3 3 3 3 3 3 3 3 0 0 0 0 0 0 0 0 0 0 0 0 0 0 0 0 0 0
0 0 0 0 0 0 0 0 0 0 0 0 0 0 0 0 0 0 0 0 3 3 3 3 3 3 3 3 0 0 0 0 0 0 0 0 0 0 0 0 0 0 0 0
0 0 0 0 0 0 0 0 0 0 0 0 0 0 0 0 0 0 0 0 0 3 3 3 3 3 3 3 0 0 0 0 0 0 0 0 0 0 0 0 0 0 0 0
0 0 0 0 0 0 0 0 0 0 0 0 0 0 0 0 0 0 0 0 0 0 0 3 3 3 3 3 3 0 0 0 0 0 0 0 0 0 0 0 0 0 0 0
0 0 0 0 0 0 0 0 0 0 0 0 0 0 0 0 0 0 0 0 0 0 0 0 3 3 3 3 3 3 3 0 0 0 0 0 0 0 0 0 0 0 0 0
0 0 0 0 0 0 0 0 0 0 0 0 0 0 0 0 0 0 0 0 0 0 0 0 0 0 3 3 3 3 0 0 0 0 0 0 0 0 0 0 0 0 0 0
0 0 0 0 0 0 0 0 0 0 0 0 0 0 0 0 0 0 0 0 0 0 0 0 0 0 0 0 0 0 0 0 0 0 0 0 0 0 0 0 0 0 0 0
0 0 0 0 0 0 0 0 0 0 0 0 0 0 0 0 0 0 0 0 0 0 0 0 0 3 3 0 0 0 0 0 0 0 0 0 0 0 0 0 0 0 0 0
0 0 0 0 0 0 0 0 0 0 0 0 0 0 0 0 0 0 0 0 0 0 0 0 0 0 0 0 0 0 0 0 0 0 0 0 0 0 0 0 0 0 0 0
0 0 0 0 0 0 0 0 0 0 0 0 0 0 0 0 0 0 0 0 0 0 0 0 0 0 0 0 0 0 0 0 0 0 0 0 0 0 0 0 0 0 0 0
0 0 0 0 0 0 0 0 0 0 0 0 0 0 0 0 0 0 0 0 0 0 0 0 0 0 0 0 0 0 0 0 0 0 0 0 0 0 0 0 0 0 0 0
0 0 0 0 0 0 0 0 0 0 0 0 0 0 0 0 0 0 0 0 0 0 0 0 0 0 0 0 0 0 0 0 0 0 0 0 0 0 0 0 0 0 0 0
0 0 0 0 0 0 0 0 0 0 0 0 0 0 0 0 0 0 0 0 0 0 0 0 0 0 0 0 0 0 0 0 0 0 0 0 0 0 0 0 0 0 0 0
0 0 0 0 0 0 0 0 0 0 0 0 0 0 0 0 0 0 0 0 0 0 0 0 0 0 0 0 0 0 0 0 0 0 0 0 0 0 0 0 0 0 0 0
0 0 0 0 0 0 0 0 0 0 0 0 0 0 0 0 0 0 0 0 0 0 0 0 0 0 0 0 0 0 0 0 0 0 0 0 0 0 0 0 0 0 0 0
0 0 0 0 0 0 0 0 0 0 0 0 0 0 0 0 0 0 0 0 0 0 0 0 0 0 0 0 0 0 0 0 0 0 0 0 0 0 0 0 0 0 0 0
0 0 0 0 0 0 0 0 0 0 0 0 0 0 0 0 0 0 0 0 0 0 0 0 0 0 0 0 0 0 0 0 0 0 0 0 0 0 0 0 0 0 0 0
0 0 0 0 0 0 0 0 0 0 0 0 0 0 0 0 0 0 0 0 0 0 0 0 0 0 0 0 0 0 0 0 0 0 0 0 0 0 0 0 0 0 0 0
0 0 0 0 0 0 0 0 0 0 0 0 0 0 0 0 0 0 0 0 0 0 0 0 0 0 0 0 0 0 0 0 0 0 0 0 0 0 0 0 0 0 0 0
0 0 0 0 0 0 0 0 0 0 0 0 0 0 0 0 0 0 0 0 0 0 0 0 0 0 0 0 0 0 0 0 0 0 0 0 0 0 0 0 0 0 0 0
0 0 0 0 0 0 0 0 0 0 0 0 0 0 0 0 0 0 0 0 0 0 0 0 0 0 0 0 0 0 0 0 0 0 0 0 0 0 0 0 0 0 0 0
0 0 0 0 0 0 0 0 0 0 0 0 0 0 0 0 0 0 0 0 0 0 0 0 0 0 0 0 0 0 0 0 0 0 0 0 0 0 0 0 0 0 0 0
0 0 0 0 0 0 0 0 0 0 0 0 0 0 0 0 0 0 0 0 0 0 0 0 0 0 0 0 0 0 0 0 0 0 0 0 0 0 0 0 0 0 0 0
0 0 0 0 0 0 0 0 0 0 0 0 0 0 0 0 0 0 0 0 0 0 0 0 0 0 0 0 0 0 0 0 0 0 0 0 0 0 0 0 0 0 0 0
0 0 0 0 0 0 0 0 0 0 0 0 0 0 0 0 0 0 0 0 0 0 0 0 0 0 0 0 0 0 0 0 0 0 0 0 0 0 0 0 0 0 0 0
0 0 0 0 0 0 0 0 0 0 0 0 0 0 0 0 0 0 0 0 0 0 0 0 0 0 0 0 0 0 0 0 0 0 0 0 0 0 0 0 0 0 0 0
0 0 0 0 0 0 0 0 0 0 0 0 0 0 0 0 0 0 0 0 0 0 0 0 0 0 0 0 0 0 0 0 0 0 0 0 0 0 0 0 0 0 0 0
Height
5778 5779 5780 5781 5782 5783 5784 5785 5786 5787 5788 5788 5788 5788 5788 5787 5787 5786 5786 5785 5784 5783 5782 5781 5780 5779 5778 5777 5776 5775 5775 5774 5773 5773 5772 5771 5770 5770 5769 5769 5769 5768 5768 5768
5772 5774 5775 5776 5777 5778 5779 5779 5780 5781 5782 5782 5782 5782 5781 5781 5781 5781 5780 5779 5778 5777 5777 5775 5774 5773 5772 5771 5770 5769 5768 5767 5766 5765 5765 5764 5763 5763 5762 5762 5761 5761 5761 5761
5767 5768 5769 5771 5772 5772 5773 5773 5774 5775 5777 5776 5776 5776 5775 5775 5775 5775 5774 5773 5773 5772 5771 5770 5768 5767 5766 5765 5764 5763 5761 5760 5759 5759 5758 5757 5756 5756 5755 5755 5754 5754 5754 5754
5762 5764 5765 5768 5767 5767 5767 5768 5769 5769 5770 5770 5770 5770 5770 5769 5769 5768 5768 5768 5767 5766 5765 5764 5762 5761 5760 5758 5757 5756 5755 5754 5753 5752 5751 5750 5749 5749 5748 5748 5747 5747 5746 5746
5757 5758 5759 5761 5761 5761 5762 5762 5763 5763 5763 5764 5764 5764 5764 5763 5763 5762 5762 5761 5761 5759 5758 5757 5756 5755 5753 5752 5751 5750 5749 5747 5746 5746 5745 5744 5743 5742 5741 5741 5740 5739 5739 5738
5752 5753 5754 5757 5756 5756 5757 5757 5758 5757 5757 5758 5757 5758 5759 5757 5757 5756 5755 5755 5754 5753 5752 5751 5750 5748 5747 5746 5745 5744 5742 5741 5740 5739 5738 5737 5735 5734 5734 5733 5732 5731 5730 5730
5747 5747 5749 5750 5750 5751 5752 5753 5752 5751 5751 5751 5751 5751 5751 5751 5750 5749 5749 5748 5747 5746 5746 5745 5743 5742 5741 5740 5739 5738 5736 5735 5733 5732 5731 5730 5728 5727 5726 5725 5724 5723 5723 5722
5742 5742 5745 5744 5744 5745 5745 5745 5744 5744 5744 5744 5744 5744 5744 5744 5743 5743 5742 5741 5740 5740 5739 5738 5736 5735 5734 5733 5732 5731 5729 5728 5726 5725 5723 5722 5721 5719 5718 5717 5716 5715 5714 5713
5737 5739 5738 5737 5737 5737 5737 5738 5738 5737 5737 5738 5737 5737 5737 5737 5736 5735 5735 5734 5733 5732 5731 5730 5729 5728 5727 5726 5724 5723 5722 5720 5719 5717 5716 5714 5713 5711 5710 5708 5707 5706 5705 5704
5730 5731 5730 5730 5730 5730 5730 5730 5730 5730 5730 5730 5730 5730 5729 5729 5729 5728 5727 5726 5725 5725 5724 5723 5722 5720 5719 5718 5717 5715 5714 5712 5711 5709 5708 5706 5704 5703 5702 5700 5699 5698 5696 5696
5723 5723 5723 5723 5723 5723 5722 5722 5722 5722 5722 5722 5722 5722 5721 5721 5720 5720 5719 5718 5717 5716 5715 5715 5713 5712 5710 5709 5708 5707 5705 5704 5703 5701 5699 5698 5696 5694 5693 5691 5690 5689 5687 5686
5716 5716 5716 5716 5716 5716 5715 5715 5714 5714 5714 5713 5713 5713 5713 5712 5711 5710 5710 5709 5708 5707 5706 5705 5704 5703 5702 5700 5699 5698 5696 5695 5694 5692 5691 5689 5687 5685 5683 5682 5680 5679 5677 5676
5708 5708 5708 5709 5708 5708 5707 5707 5706 5706 5705 5705 5705 5704 5704 5703 5702 5701 5700 5699 5698 5698 5697 5696 5695 5694 5692 5691 5690 5689 5688 5686 5685 5683 5681 5680 5678 5676 5675 5673 5671 5669 5668 5667
5701 5701 5700 5701 5701 5700 5700 5699 5698 5698 5697 5697 5696 5696 5695 5694 5693 5692 5691 5690 5689 5688 5687 5686 5685 5684 5683 5682 5680 5679 5678 5676 5675 5673 5672 5670 5668 5666 5664 5663 5662 5660 5659 5657
5693 5693 5693 5692 5692 5692 5691 5690 5690 5690 5689 5688 5688 5687 5686 5685 5684 5683 5681 5680 5679 5678 5677 5676 5675 5674 5673 5671 5670 5669 5668 5667 5665 5663 5662 5660 5658 5656 5654 5653 5651 5650 5648 5647
5685 5685 5684 5684 5684 5683 5683 5682 5682 5681 5681 5680 5679 5678 5677 5676 5674 5673 5671 5670 5669 5667 5666 5665 5664 5663 5662 5661 5660 5659 5657 5656 5655 5653 5651 5650 5648 5646 5644 5642 5641 5639 5638 5636
5677 5677 5676 5676 5676 5675 5674 5674 5673 5672 5672 5671 5670 5669 5668 5666 5665 5663 5662 5660 5659 5658 5656 5655 5654 5652 5651 5650 5649 5648 5647 5646 5644 5643 5641 5639 5637 5636 5634 5632 5630 5628 5627 5625
5669 5669 5668 5668 5667 5667 5666 5666 5665 5664 5664 5663 5662 5660 5659 5657 5656 5654 5653 5651 5649 5648 5646 5645 5643 5642 5641 5639 5639 5638 5636 5635 5634 5632 5631 5629 5627 5625 5623 5621 5620 5618 5616 5614
5660 5660 5660 5660 5659 5659 5658 5657 5656 5656 5655 5654 5653 5651 5650 5648 5646 5645 5643 5641 5640 5638 5637 5635 5634 5632 5631 5630 5628 5627 5626 5625 5624 5622 5620 5618 5616 5614 5612 5610 5609 5607 5606 5604
5653 5652 5652 5652 5651 5651 5650 5649 5648 5647 5646 5645 5644 5643 5641 5639 5637 5636 5634 5632 5630 5629 5627 5626 5624 5623 5621 5620 5619 5617 5616 5615 5613 5611 5609 5608 5606 5603 5601 5599 5598 5596 5595 5594
5645 5644 5644 5643 5643 5642 5641 5641 5640 5639 5638 5636 5635 5634 5633 5631 5629 5627 5625 5623 5621 5619 5618 5616 5615 5613 5612 5611 5609 5608 5606 5605 5603 5601 5599 5597 5595 5593 5590 5589 5587 5585 5584 5583
5637 5636 5635 5635 5634 5634 5633 5632 5631 5630 5629 5628 5626 5625 5624 5622 5620 5618 5616 5614 5612 5610 5609 5607 5605 5604 5602 5601 5599 5598 5596 5594 5592 5590 5588 5586 5584 5582 5580 5578 5576 5575 5573 5572
5628 5628 5627 5626 5626 5625 5624 5623 5622 5621 5620 5619 5618 5616 5615 5613 5611 5610 5608 5606 5603 5601 5599 5597 5596 5594 5592 5591 5589 5588 5586 5584 5582 5580 5578 5576 5574 5572 5570 5568 5566 5564 5563 5562
5620 5619 5618 5617 5617 5616 5615 5614 5613 5612 5611 5610 5609 5607 5606 5604 5603 5601 5599 5596 5594 5592 5590 5588 5586 5584 5583 5581 5580 5578 5576 5574 5572 5570 5568 5566 5564 5561 5559 5557 5556 5554 5553 5551
5611 5610 5610 5609 5608 5607 5606 5605 5604 5603 5602 5601 5600 5598 5597 5595 5594 5592 5589 5587 5585 5583 5581 5579 5577 5575 5573 5571 5570 5568 5566 5564 5562 5560 5558 5555 5553 5551 5549 5547 5545 5544 5543 5541
5603 5602 5601 5600 5599 5598 5597 5596 5595 5594 5593 5592 5591 5589 5588 5586 5584 5582 5580 5578 5576 5574 5572 5570 5568 5566 5564 5562 5560 5558 5556 5554 5552 5550 5547 5545 5543 5541 5538 5537 5535 5534 5533 5531
5594 5593 5592 5591 5590 5589 5588 5587 5586 5585 5584 5583 5582 5580 5579 5577 5575 5573 5571 5569 5567 5565 5563 5561 5559 5557 5555 5553 5551 5549 5546 5544 5542 5540 5537 5535 5532 5530 5528 5526 5525 5524 5523 5521
Wind_Speed
19 18 19 19 19 20 21 21 21 19 18 17 18 19 19 19 18 17 17 18 18 18 18 18 18 18 19 19 20 20 20 21 21 22 23 23 23 23 22 22 22 22 22 21
19 19 20 20 20 20 21 22 21 20 19 18 18 19 19 19 19 18 18 18 18 18 18 18 19 19 19 20 20 21 22 21 22 22 22 23 22 23 23 23 22 22 22 22
18 18 19 19 19 21 22 21 21 20 19 19 19 19 19 19 19 19 18 17 18 18 19 19 19 20 20 20 21 22 22 22 22 22 22 22 22 22 22 23 23 23 23 23
20 19 19 18 19 20 21 21 20 20 20 20 20 20 19 19 19 19 19 18 18 19 19 20 20 20 21 21 21 21 22 22 22 22 22 22 23 23 23 23 23 24 24 24
20 20 18 17 18 20 21 21 21 22 22 21 20 20 20 20 20 20 19 19 19 19 19 20 21 21 21 21 21 21 21 22 22 22 23 23 23 23 24 24 24 25 25 26
20 21 20 18 18 19 21 21 21 22 23 22 22 21 20 20 20 20 20 20 20 20 20 21 22 22 22 22 21 21 22 22 22 23 23 23 23 24 24 25 25 26 26 27
21 21 20 19 20 21 22 21 21 22 22 23 23 22 21 21 20 20 20 21 21 22 22 22 23 23 22 22 22 22 22 23 23 23 24 24 24 24 25 25 25 26 27 27
22 22 21 21 21 22 22 22 23 23 23 23 23 23 22 22 22 22 22 22 23 23 23 23 24 23 23 22 22 22 22 23 23 24 24 25 26 26 26 26 26 26 26 27
23 22 22 22 23 23 24 24 24 24 25 25 24 24 23 23 24 25 24 24 24 24 25 25 25 24 24 24 24 24 24 24 25 25 25 26 26 26 26 27 26 26 26 27
24 23 24 23 24 24 24 25 25 26 26 26 26 25 25 25 25 26 26 26 26 26 26 26 27 27 26 26 26 26 26 26 26 26 26 26 27 27 26 26 27 27 27 28
25 25 26 25 25 25 25 25 25 26 26 26 26 26 27 27 27 27 27 28 28 28 28 28 28 28 28 28 28 28 27 27 27 27 27 27 28 28 28 28 28 28 28 29
24 25 26 26 26 26 27 27 27 27 27 27 26 27 28 28 28 29 29 29 29 29 29 29 29 29 30 29 29 28 28 28 28 28 28 28 28 29 29 29 29 29 29 30
23 24 25 26 26 27 28 28 28 28 27 27 28 28 29 29 30 30 30 30 29 29 29 29 30 30 30 29 29 30 30 30 30 30 30 30 30 30 30 31 31 30 30 30
23 24 24 25 26 27 27 28 28 28 28 28 29 29 30 30 30 30 30 30 30 31 31 31 31 31 30 31 31 31 32 32 31 31 31 31 31 31 31 31 32 32 32 32
24 25 25 25 26 26 26 27 27 27 27 28 29 29 29 29 30 30 31 31 31 31 31 31 31 32 32 32 32 32 33 32 32 32 32 32 32 33 33 33 33 33 33 33
25 25 26 26 26 26 26 26 27 27 27 27 28 29 29 29 29 29 30 30 31 30 31 31 32 32 33 34 34 33 32 32 32 32 32 33 33 33 33 33 33 33 33 33
24 25 25 25 26 26 26 26 26 27 27 27 27 28 28 29 29 29 30 30 30 30 30 31 31 32 32 32 32 32 32 31 31 32 32 33 33 33 34 34 33 33 33 33
24 24 24 24 24 25 25 25 25 26 27 27 27 27 27 28 28 29 29 29 30 30 30 30 30 30 30 30 30 30 31 31 32 32 32 33 33 33 33 34 34 33 33 33
23 23 24 24 24 25 25 25 25 25 25 25 26 26 26 27 28 29 29 29 29 29 29 29 29 29 29 29 29 30 30 30 31 31 32 32 33 33 34 34 34 34 34 34
23 24 24 24 25 25 26 26 26 26 26 25 25 25 26 27 27 28 28 29 29 29 29 28 29 29 29 28 28 29 30 30 30 31 31 32 33 33 34 34 34 34 34 33
24 25 25 25 25 25 26 26 26 26 26 26 26 27 27 27 27 27 27 27 27 27 28 28 29 29 29 29 29 30 30 31 31 31 32 32 32 32 32 32 33 33 33 32
24 24 25 25 26 26 27 27 27 27 27 27 28 28 27 27 27 27 27 27 27 28 28 29 29 29 29 29 29 30 31 31 31 32 32 32 31 32 32 32 32 32 32 32
24 25 25 26 26 26 27 27 27 27 27 27 27 27 27 27 27 27 27 28 28 28 28 28 28 29 29 29 29 30 30 30 31 31 31 31 32 33 33 32 32 31 31 32
25 25 25 25 26 26 26 26 27 27 27 27 27 27 27 27 27 28 28 28 28 28 28 28 28 29 29 29 30 30 30 30 31 31 31 32 32 32 31 31 31 31 31 31
25 25 25 25 26 26 27 27 27 27 27 27 27 27 28 28 28 28 28 28 28 27 27 27 27 28 28 28 29 30 30 31 31 32 32 32 32 32 31 30 30 30 30 30
25 26 25 25 26 26 26 27 27 27 27 27 27 28 28 28 28 28 28 28 27 27 27 28 28 28 28 28 28 29 30 30 31 31 32 32 32 31 31 30 30 30 30 30
26 26 26 26 26 26 26 26 27 27 27 27 28 28 28 28 28 28 28 28 28 28 28 28 28 28 28 28 29 29 29 30 30 30 31 31 31 31 30 30 29 30 30 30
Wind_Direction
249 249 246 247 246 247 251 255 257 257 261 267 271 276 277 275 275 277 278 280 281 282 282 281 279 278 277 278 279 279 279 279 278 277 277 275 274 275 274 274 274 272 270 270
250 250 248 248 250 250 252 254 255 257 261 265 268 273 275 275 274 276 278 279 281 282 283 282 281 279 278 279 280 280 280 279 278 278 278 277 276 276 273 272 273 271 269 269
250 251 252 249 248 252 254 254 255 257 261 266 267 270 272 274 272 273 276 276 278 280 282 282 282 282 282 282 281 281 279 278 278 278 277 276 275 273 272 272 272 272 269 268
254 253 253 251 250 253 256 257 257 260 265 268 269 269 270 271 271 271 273 274 276 279 280 281 283 283 282 282 282 281 280 279 279 279 278 276 275 273 273 273 273 272 270 268
255 255 255 252 253 255 259 259 259 261 263 266 269 269 267 268 270 268 269 271 274 277 280 281 283 284 284 283 282 281 281 281 279 279 279 278 277 275 274 274 275 273 271 270
255 258 257 255 254 255 260 263 263 263 263 265 267 269 268 269 270 270 268 270 273 276 279 281 283 283 283 283 283 282 282 281 280 279 280 280 281 278 276 277 276 275 273 271
257 259 258 258 258 258 261 265 265 265 267 268 268 270 271 270 269 271 271 272 273 275 277 281 281 280 281 282 283 284 284 282 281 281 281 281 281 280 279 279 278 277 275 271
257 259 260 260 261 261 263 265 266 266 267 270 270 270 270 270 270 271 271 273 274 274 275 279 279 278 278 279 281 282 283 283 282 283 282 281 281 281 280 280 280 279 276 273
259 261 262 263 262 262 264 264 265 267 266 268 268 269 270 271 273 274 274 275 274 275 276 277 278 277 278 280 281 282 283 283 283 282 282 282 282 282 281 280 280 279 277 274
260 263 264 266 265 265 266 264 266 267 268 268 268 268 269 270 273 274 275 276 275 275 276 277 277 277 278 280 280 281 282 283 283 282 283 283 282 282 281 280 279 278 277 275
262 264 265 267 267 267 268 267 266 268 268 268 269 270 270 272 273 274 275 275 276 277 278 278 277 277 279 280 279 280 280 281 282 283 283 284 283 283 282 280 279 279 278 276
263 264 264 264 266 267 269 268 267 268 267 267 269 271 272 273 274 275 275 275 276 277 277 278 278 278 279 280 280 280 280 280 281 281 282 283 283 283 283 282 281 280 279 277
263 264 264 264 266 268 269 270 269 268 269 269 271 272 273 274 275 275 276 275 276 276 277 277 278 278 278 279 279 279 279 279 280 280 281 282 282 282 282 282 281 280 280 278
264 264 265 265 267 268 270 271 271 269 269 270 272 273 273 274 275 276 277 277 277 277 277 277 277 277 277 277 278 278 278 278 278 279 280 282 282 282 282 282 280 279 279 279
263 264 266 268 270 271 271 271 272 271 270 271 273 274 274 274 275 276 277 278 278 278 277 277 277 277 276 276 277 277 277 277 278 278 279 281 282 282 282 281 280 279 278 278
265 265 267 269 270 271 272 273 273 273 273 273 274 276 276 277 277 277 278 278 278 279 278 278 277 276 275 275 276 277 276 276 278 279 279 280 281 282 282 282 281 281 279 278
268 267 268 268 269 270 271 272 273 273 273 274 275 277 278 279 278 278 279 279 280 280 280 280 278 276 275 275 275 275 275 275 277 279 280 281 281 282 282 282 282 281 280 280
270 269 269 268 268 269 270 271 273 274 274 275 277 278 279 281 282 281 280 280 281 281 281 281 280 277 276 276 275 275 275 276 277 278 280 281 282 283 283 282 282 282 281 280
270 270 270 271 271 270 270 271 272 274 275 277 278 279 280 281 281 282 282 282 282 281 280 280 280 280 279 278 277 276 277 278 279 279 280 280 282 283 282 281 281 281 281 280
272 271 271 272 273 272 273 273 274 274 275 277 278 280 281 282 283 284 285 284 283 282 280 279 280 280 280 280 280 280 280 281 281 281 281 281 282 283 282 281 281 280 280 280
274 273 273 273 274 273 273 274 275 276 276 277 278 279 280 282 284 285 286 286 285 284 282 281 281 279 279 279 280 281 282 282 283 283 283 283 283 284 284 284 283 282 281 280
276 276 275 274 274 274 275 275 275 276 277 277 279 279 280 283 285 285 286 287 286 285 284 284 283 281 281 281 282 283 283 284 284 284 284 284 284 286 286 286 285 283 282 280
276 277 278 277 275 275 276 275 275 275 276 278 279 280 282 284 284 285 287 288 288 287 285 284 283 282 282 282 283 284 285 285 285 285 284 285 285 286 286 286 285 283 282 282
277 278 279 279 278 277 276 275 275 276 277 277 277 278 281 284 286 287 289 288 288 287 286 286 285 283 282 282 283 285 286 286 286 286 286 286 287 287 286 285 284 283 283 282
278 278 279 279 279 278 276 275 275 276 278 278 278 279 281 285 287 288 289 289 288 287 287 288 287 286 284 284 285 286 286 287 286 286 287 287 287 287 287 286 285 284 284 284
279 279 278 278 278 278 276 276 276 276 277 278 279 281 283 284 285 286 286 287 288 289 289 289 289 288 287 287 288 288 288 287 287 287 288 288 287 286 286 285 284 284 284 285
279 279 278 277 278 277 277 276 277 278 279 279 279 281 283 284 284 285 285 286 286 288 289 290 290 289 289 289 290 291 291 290 290 290 290 289 287 287 287 286 285 284 285 286